GEFSSGP_prec_meanprecacc_132.txt.gz
Total_Precipitation_Accumulation
0.01 0.03 0.14 0.31 0.62 1.04 1.05 0.56 0.38 0.25 0.26 0.38 0.38 0.28 0.28 0.36 0.44 0.68 0.31 0.24 0.12 0.04 0.03 0.05 0.08 0.06 0.07 0.09 0.10 0.11 0.10 0.10 0.09 0.07 0.06 0.06 0.05 0.05 0.05 0.05 0.06 0.07 0.09 0.09 0.09 0.08 0.06 0.06 0.07
0.01 0.05 0.18 0.41 0.83 1.39 0.93 0.41 0.28 0.23 0.32 0.40 0.32 0.25 0.28 0.26 0.24 0.17 0.15 0.27 0.11 0.04 0.02 0.02 0.06 0.07 0.06 0.08 0.09 0.11 0.11 0.12 0.12 0.09 0.08 0.07 0.07 0.07 0.08 0.07 0.07 0.08 0.09 0.09 0.08 0.07 0.05 0.05 0.06
0.02 0.06 0.22 0.39 0.69 0.97 0.48 0.21 0.18 0.21 0.36 0.39 0.31 0.27 0.30 0.33 0.29 0.21 0.13 0.15 0.11 0.05 0.03 0.04 0.05 0.06 0.06 0.07 0.09 0.10 0.11 0.12 0.13 0.11 0.08 0.08 0.09 0.10 0.11 0.10 0.08 0.08 0.08 0.08 0.08 0.07 0.07 0.06 0.07
0.02 0.10 0.22 0.34 0.50 0.50 0.26 0.16 0.15 0.21 0.34 0.31 0.27 0.36 0.39 0.44 0.27 0.20 0.16 0.12 0.10 0.07 0.05 0.05 0.06 0.06 0.06 0.07 0.08 0.10 0.12 0.13 0.13 0.11 0.10 0.10 0.11 0.11 0.11 0.10 0.09 0.08 0.08 0.09 0.08 0.07 0.08 0.08 0.09
0.03 0.14 0.27 0.35 0.36 0.27 0.20 0.16 0.17 0.18 0.20 0.28 0.33 0.50 0.49 0.45 0.29 0.34 0.32 0.19 0.09 0.09 0.10 0.10 0.10 0.08 0.09 0.08 0.09 0.10 0.11 0.12 0.12 0.11 0.12 0.12 0.12 0.11 0.11 0.11 0.10 0.09 0.08 0.09 0.11 0.10 0.08 0.09 0.10
0.03 0.10 0.19 0.19 0.14 0.13 0.18 0.16 0.15 0.16 0.21 0.32 0.42 0.44 0.50 0.44 0.39 0.55 0.47 0.30 0.18 0.14 0.17 0.18 0.17 0.15 0.13 0.11 0.11 0.12 0.13 0.14 0.14 0.14 0.14 0.13 0.13 0.14 0.13 0.13 0.12 0.12 0.12 0.11 0.12 0.13 0.11 0.11 0.11
0.02 0.04 0.07 0.06 0.06 0.11 0.12 0.12 0.13 0.15 0.28 0.38 0.45 0.54 0.67 0.71 0.57 0.54 0.53 0.51 0.33 0.34 0.45 0.37 0.24 0.20 0.21 0.19 0.18 0.17 0.17 0.19 0.18 0.18 0.17 0.16 0.16 0.16 0.17 0.18 0.18 0.18 0.19 0.19 0.16 0.13 0.15 0.15 0.14
0.01 0.02 0.02 0.02 0.02 0.05 0.05 0.08 0.11 0.16 0.25 0.40 0.51 0.65 0.90 0.87 0.72 0.65 0.68 0.78 0.54 0.46 0.52 0.49 0.33 0.28 0.22 0.19 0.20 0.22 0.22 0.23 0.22 0.21 0.20 0.19 0.18 0.20 0.23 0.25 0.30 0.31 0.34 0.36 0.31 0.23 0.22 0.24 0.24
0.00 0.01 0.01 0.01 0.01 0.01 0.02 0.04 0.08 0.15 0.23 0.31 0.52 0.72 0.74 0.68 0.85 0.84 0.90 1.12 1.06 0.83 0.73 0.64 0.40 0.32 0.30 0.26 0.23 0.29 0.29 0.29 0.28 0.31 0.28 0.30 0.36 0.47 0.61 0.56 0.65 0.60 0.62 0.62 0.60 0.53 0.51 0.52 0.42
0.00 0.01 0.01 0.00 0.00 0.01 0.01 0.03 0.09 0.24 0.39 0.60 0.86 0.87 0.70 0.68 1.00 1.17 1.29 1.48 1.45 1.25 1.09 0.85 0.59 0.48 0.46 0.38 0.39 0.43 0.44 0.54 0.54 0.68 0.71 0.81 0.98 0.97 0.80 0.94 1.15 1.20 1.19 1.12 1.09 1.18 1.07 0.90 0.74
0.00 0.00 0.00 0.00 0.00 0.00 0.01 0.02 0.06 0.18 0.58 1.01 1.25 1.24 1.07 0.93 1.19 1.55 1.82 2.03 1.76 1.42 1.24 1.07 0.86 0.69 0.58 0.60 0.62 0.69 0.81 1.07 0.95 0.91 1.02 1.30 1.23 1.03 0.94 1.07 1.35 1.62 1.63 1.53 1.67 1.79 1.42 1.47 1.54
0.00 0.00 0.00 0.00 0.00 0.00 0.01 0.03 0.12 0.21 0.59 0.83 1.04 1.19 1.25 1.26 1.33 1.55 1.84 2.01 2.12 1.97 1.70 1.41 1.27 1.07 1.03 0.98 0.92 0.87 0.93 1.04 1.03 1.15 1.08 1.39 1.47 1.36 1.30 1.41 1.52 1.72 1.93 2.22 2.19 2.31 2.18 2.10 1.94
0.00 0.00 0.00 0.00 0.00 0.01 0.01 0.06 0.15 0.27 0.52 0.55 0.65 0.83 1.12 1.35 1.65 1.90 2.04 2.28 2.35 2.40 2.18 1.97 1.77 1.67 1.62 1.47 1.32 1.12 1.17 1.15 1.17 1.36 1.37 1.50 1.74 1.80 1.86 1.82 1.74 1.66 2.02 2.42 2.57 2.34 2.58 2.61 2.24
0.00 0.00 0.00 0.00 0.01 0.02 0.03 0.08 0.18 0.32 0.46 0.53 0.59 0.79 1.07 1.39 1.65 2.04 2.31 2.59 2.52 2.57 2.64 2.70 2.53 2.40 2.28 2.12 1.97 1.76 1.61 1.67 1.64 1.69 1.83 1.98 2.13 2.28 2.33 2.18 2.05 1.85 1.90 2.17 2.37 2.38 2.59 2.47 2.35
0.00 0.01 0.04 0.04 0.03 0.04 0.10 0.19 0.35 0.48 0.53 0.69 0.79 1.02 1.17 1.48 1.80 1.91 2.04 2.27 2.54 2.75 3.13 3.35 3.35 3.26 3.11 2.94 2.69 2.35 2.16 2.21 2.37 2.43 2.48 2.44 2.50 2.72 2.61 2.35 2.05 1.95 2.00 2.09 2.08 2.11 2.21 2.07 2.00
0.01 0.03 0.10 0.11 0.07 0.08 0.14 0.39 0.53 0.57 0.69 0.87 0.92 1.16 1.43 1.48 1.75 1.89 1.94 2.12 2.64 3.05 3.54 3.79 3.92 4.08 3.95 3.78 3.44 2.94 2.66 2.61 2.65 2.72 2.72 2.66 2.67 2.58 2.51 2.20 1.86 1.91 1.99 1.98 1.95 1.84 1.91 1.89 1.94
0.02 0.06 0.12 0.19 0.11 0.12 0.19 0.48 0.60 0.62 0.82 0.95 1.12 1.14 1.30 1.48 1.81 2.08 2.22 2.33 2.70 3.25 3.89 4.31 4.75 4.96 4.83 4.37 3.73 3.24 3.13 3.02 2.89 2.88 2.75 2.63 2.44 2.30 2.39 2.10 1.91 1.88 1.83 1.72 1.63 1.82 1.96 1.90 1.91
0.03 0.05 0.12 0.22 0.15 0.14 0.25 0.47 0.67 0.76 0.91 1.07 1.11 1.09 1.21 1.44 1.62 1.90 2.17 2.55 2.84 3.29 3.94 4.57 5.13 5.27 4.94 4.24 3.68 3.49 3.30 3.00 2.74 2.46 2.27 2.07 2.01 1.91 1.98 1.78 1.68 1.76 1.76 1.62 1.66 1.81 1.88 1.67 1.73
0.03 0.05 0.13 0.21 0.14 0.16 0.29 0.45 0.67 0.83 0.97 1.02 1.19 1.15 1.24 1.42 1.59 1.94 2.27 2.71 3.08 3.48 4.08 4.62 5.03 4.94 4.64 4.18 3.69 3.31 2.82 2.50 2.21 1.90 1.67 1.51 1.42 1.40 1.57 1.40 1.48 1.54 1.49 1.40 1.38 1.45 1.48 1.30 1.53
0.05 0.08 0.17 0.20 0.13 0.14 0.30 0.50 0.76 0.84 0.82 0.83 1.03 1.12 1.12 1.21 1.43 1.74 2.21 2.61 2.96 3.36 3.76 4.06 3.98 3.55 3.30 3.12 2.84 2.47 2.32 2.17 2.07 1.96 1.73 1.40 1.33 1.27 1.19 1.21 1.18 1.24 1.28 1.17 1.12 1.23 1.22 1.04 1.29
0.06 0.08 0.14 0.19 0.21 0.22 0.33 0.65 0.87 0.89 0.80 0.73 0.74 0.82 0.88 0.98 1.18 1.47 1.98 2.28 2.44 2.73 2.94 2.94 2.69 2.28 2.15 2.12 1.93 1.95 2.07 2.08 2.02 1.98 1.84 1.59 1.45 1.38 1.30 1.20 1.09 1.06 1.05 1.06 1.03 1.10 1.11 0.99 1.02
0.09 0.06 0.07 0.09 0.19 0.41 0.46 0.82 1.05 1.09 1.04 0.85 0.72 0.78 0.79 0.80 0.85 1.15 1.48 1.63 1.80 1.88 1.91 1.90 1.81 1.67 1.58 1.58 1.52 1.42 1.51 1.69 1.81 1.93 1.94 1.92 1.78 1.57 1.40 1.25 1.06 0.91 0.87 0.93 0.82 0.89 1.01 1.03 0.92
0.06 0.05 0.06 0.09 0.15 0.29 0.41 0.64 1.01 1.20 1.35 0.95 0.70 0.68 0.62 0.66 0.78 0.94 1.00 1.02 1.14 1.19 1.26 1.26 1.34 1.39 1.38 1.41 1.54 1.43 1.23 1.17 1.10 1.14 1.26 1.36 1.43 1.35 1.14 1.03 0.94 0.84 0.77 0.75 0.78 0.89 0.96 0.98 0.91
0.06 0.10 0.15 0.24 0.37 0.60 0.57 0.60 0.90 1.01 1.06 0.74 0.59 0.64 0.53 0.49 0.57 0.66 0.70 0.73 0.79 0.84 0.91 1.05 1.17 1.32 1.31 1.30 1.32 1.34 1.25 1.17 1.07 0.99 0.98 0.93 0.96 0.95 0.87 0.80 0.79 0.76 0.74 0.74 0.73 0.78 0.86 0.94 0.99
0.08 0.15 0.47 0.81 1.13 1.15 0.65 0.64 0.80 0.70 0.66 0.69 0.58 0.53 0.49 0.40 0.40 0.37 0.39 0.43 0.47 0.48 0.55 0.76 0.90 1.03 1.03 1.02 1.04 1.05 1.16 1.14 1.04 0.90 0.80 0.72 0.66 0.66 0.69 0.70 0.73 0.71 0.75 0.79 0.85 0.85 0.84 0.92 1.03
0.08 0.12 0.33 0.56 0.73 0.83 0.67 0.95 0.94 0.64 0.57 0.49 0.38 0.32 0.35 0.26 0.22 0.19 0.19 0.21 0.27 0.32 0.35 0.44 0.64 0.76 0.85 0.84 0.88 0.99 1.18 1.20 1.07 1.05 0.88 0.77 0.68 0.65 0.66 0.72 0.78 0.75 0.73 0.73 0.83 0.86 0.92 0.99 1.03
0.09 0.08 0.12 0.18 0.30 0.54 0.77 0.93 0.80 0.56 0.52 0.41 0.27 0.19 0.18 0.15 0.12 0.11 0.12 0.13 0.16 0.20 0.25 0.28 0.41 0.57 0.70 0.75 0.80 0.80 0.82 0.86 0.86 0.85 0.80 0.73 0.76 0.68 0.73 0.79 0.86 0.85 0.84 0.85 0.89 0.88 0.97 1.15 1.22
0.10 0.09 0.10 0.14 0.26 0.41 0.65 0.94 0.92 0.72 0.58 0.45 0.31 0.18 0.12 0.11 0.09 0.09 0.08 0.09 0.10 0.14 0.23 0.32 0.36 0.47 0.72 0.85 0.83 0.70 0.61 0.56 0.65 0.69 0.72 0.75 0.76 0.73 0.75 0.79 0.81 0.85 0.85 0.86 0.90 0.94 1.03 1.20 1.27
0.14 0.11 0.10 0.13 0.15 0.26 0.53 0.70 0.55 0.49 0.40 0.32 0.26 0.17 0.13 0.10 0.07 0.05 0.04 0.05 0.08 0.12 0.21 0.38 0.47 0.58 0.78 0.97 1.00 0.88 0.71 0.65 0.64 0.62 0.58 0.63 0.70 0.75 0.78 0.73 0.66 0.62 0.66 0.79 0.93 0.97 1.05 1.14 1.19
0.14 0.13 0.14 0.19 0.17 0.18 0.29 0.44 0.29 0.27 0.28 0.19 0.13 0.11 0.08 0.06 0.05 0.03 0.02 0.03 0.06 0.09 0.20 0.50 0.76 1.06 1.18 1.32 1.43 1.26 0.90 0.73 0.64 0.54 0.49 0.55 0.65 0.71 0.75 0.70 0.63 0.59 0.65 0.79 0.93 1.06 1.26 1.39 1.35

GEFSSGP_prec_meanprecacc_138.txt.gz
Total_Precipitation_Accumulation
0.01 0.04 0.18 0.40 0.79 1.20 1.12 0.57 0.39 0.25 0.27 0.38 0.38 0.28 0.29 0.37 0.45 0.72 0.36 0.27 0.13 0.04 0.03 0.05 0.08 0.06 0.07 0.09 0.10 0.12 0.11 0.10 0.09 0.08 0.07 0.06 0.06 0.06 0.06 0.06 0.07 0.09 0.10 0.10 0.10 0.09 0.07 0.07 0.07
0.02 0.08 0.25 0.53 1.04 1.49 0.97 0.42 0.29 0.23 0.32 0.40 0.33 0.26 0.28 0.27 0.24 0.18 0.17 0.29 0.13 0.05 0.02 0.02 0.07 0.07 0.06 0.08 0.09 0.11 0.12 0.12 0.12 0.10 0.08 0.08 0.08 0.08 0.09 0.08 0.08 0.09 0.10 0.10 0.09 0.08 0.06 0.06 0.07
0.03 0.09 0.30 0.52 0.83 1.01 0.50 0.23 0.19 0.21 0.36 0.40 0.31 0.28 0.30 0.34 0.31 0.21 0.15 0.17 0.12 0.05 0.03 0.04 0.05 0.06 0.06 0.07 0.09 0.11 0.11 0.12 0.13 0.11 0.08 0.09 0.10 0.11 0.11 0.11 0.09 0.09 0.10 0.10 0.09 0.08 0.08 0.07 0.08
0.05 0.15 0.32 0.43 0.58 0.53 0.28 0.17 0.15 0.21 0.35 0.31 0.28 0.36 0.40 0.44 0.28 0.21 0.18 0.13 0.10 0.07 0.05 0.05 0.06 0.06 0.06 0.07 0.09 0.10 0.12 0.13 0.14 0.11 0.11 0.11 0.12 0.12 0.12 0.11 0.10 0.09 0.09 0.09 0.09 0.08 0.09 0.09 0.10
0.06 0.20 0.37 0.44 0.40 0.29 0.21 0.17 0.18 0.18 0.20 0.29 0.34 0.51 0.50 0.46 0.30 0.36 0.36 0.22 0.10 0.09 0.10 0.10 0.10 0.08 0.09 0.09 0.09 0.11 0.11 0.12 0.13 0.12 0.13 0.12 0.13 0.12 0.12 0.12 0.11 0.10 0.08 0.10 0.12 0.11 0.09 0.10 0.11
0.06 0.18 0.26 0.25 0.18 0.15 0.19 0.17 0.16 0.17 0.21 0.33 0.43 0.46 0.52 0.46 0.41 0.58 0.53 0.38 0.20 0.15 0.17 0.18 0.17 0.16 0.13 0.12 0.11 0.12 0.14 0.14 0.15 0.15 0.15 0.14 0.14 0.14 0.13 0.14 0.13 0.12 0.12 0.12 0.13 0.14 0.12 0.12 0.13
0.03 0.08 0.10 0.09 0.09 0.12 0.14 0.13 0.14 0.16 0.29 0.39 0.47 0.56 0.69 0.73 0.59 0.58 0.64 0.61 0.37 0.36 0.46 0.38 0.24 0.21 0.21 0.19 0.18 0.17 0.17 0.19 0.19 0.19 0.17 0.16 0.17 0.17 0.18 0.19 0.19 0.18 0.19 0.20 0.17 0.14 0.16 0.17 0.16
0.01 0.02 0.04 0.03 0.03 0.07 0.07 0.09 0.12 0.16 0.25 0.41 0.53 0.67 0.96 0.90 0.75 0.73 0.78 0.88 0.61 0.51 0.54 0.49 0.33 0.28 0.22 0.19 0.20 0.22 0.23 0.23 0.23 0.21 0.21 0.19 0.19 0.20 0.24 0.25 0.31 0.32 0.35 0.37 0.32 0.24 0.23 0.25 0.25
0.00 0.02 0.03 0.02 0.02 0.03 0.03 0.05 0.09 0.16 0.24 0.32 0.55 0.75 0.77 0.71 0.88 0.92 1.06 1.23 1.14 0.90 0.78 0.66 0.41 0.32 0.30 0.26 0.24 0.29 0.30 0.29 0.29 0.31 0.28 0.31 0.37 0.47 0.61 0.56 0.66 0.62 0.64 0.63 0.61 0.53 0.51 0.54 0.44
0.00 0.01 0.01 0.01 0.01 0.01 0.02 0.04 0.10 0.24 0.39 0.61 0.92 0.92 0.72 0.73 1.04 1.22 1.38 1.57 1.54 1.36 1.19 0.94 0.65 0.51 0.47 0.39 0.39 0.43 0.44 0.55 0.54 0.68 0.72 0.82 0.98 0.97 0.81 0.94 1.15 1.21 1.20 1.13 1.11 1.19 1.08 0.92 0.76
0.00 0.00 0.01 0.01 0.00 0.01 0.01 0.03 0.07 0.18 0.58 1.02 1.29 1.28 1.10 0.99 1.24 1.59 1.87 2.12 1.85 1.53 1.37 1.22 0.98 0.78 0.61 0.63 0.63 0.70 0.81 1.07 0.95 0.91 1.02 1.31 1.24 1.04 0.95 1.07 1.35 1.62 1.63 1.53 1.68 1.80 1.44 1.51 1.60
0.00 0.00 0.00 0.00 0.01 0.01 0.01 0.03 0.12 0.22 0.60 0.83 1.05 1.21 1.27 1.29 1.37 1.58 1.88 2.10 2.23 2.06 1.82 1.56 1.42 1.22 1.13 1.04 0.95 0.89 0.94 1.05 1.04 1.16 1.09 1.40 1.49 1.37 1.31 1.41 1.52 1.72 1.93 2.22 2.20 2.32 2.21 2.15 2.00
0.00 0.00 0.00 0.00 0.01 0.01 0.01 0.06 0.16 0.27 0.53 0.56 0.66 0.84 1.14 1.38 1.70 1.96 2.09 2.40 2.49 2.54 2.28 2.08 1.90 1.85 1.80 1.58 1.38 1.13 1.19 1.16 1.19 1.37 1.39 1.52 1.76 1.82 1.88 1.83 1.75 1.68 2.03 2.43 2.58 2.37 2.62 2.67 2.29
0.00 0.00 0.00 0.01 0.01 0.02 0.03 0.08 0.18 0.32 0.47 0.53 0.60 0.81 1.09 1.42 1.69 2.11 2.39 2.73 2.70 2.70 2.74 2.80 2.65 2.52 2.47 2.28 2.07 1.81 1.64 1.70 1.68 1.72 1.85 2.00 2.14 2.30 2.35 2.20 2.06 1.87 1.91 2.19 2.39 2.41 2.62 2.51 2.40
0.00 0.01 0.04 0.04 0.04 0.05 0.11 0.19 0.36 0.49 0.54 0.69 0.80 1.04 1.21 1.52 1.83 1.95 2.12 2.34 2.62 2.84 3.21 3.43 3.46 3.37 3.29 3.14 2.83 2.45 2.24 2.28 2.42 2.47 2.51 2.48 2.53 2.73 2.62 2.36 2.06 1.96 2.02 2.12 2.10 2.14 2.25 2.10 2.03
0.01 0.03 0.10 0.11 0.07 0.08 0.14 0.39 0.53 0.58 0.70 0.87 0.93 1.17 1.47 1.54 1.82 1.95 1.98 2.17 2.69 3.11 3.62 3.88 4.02 4.19 4.08 3.95 3.60 3.11 2.80 2.69 2.71 2.78 2.77 2.71 2.71 2.61 2.53 2.21 1.87 1.93 2.01 2.00 1.97 1.87 1.94 1.92 1.97
0.02 0.06 0.12 0.19 0.11 0.12 0.19 0.48 0.60 0.62 0.83 0.96 1.13 1.16 1.33 1.54 1.91 2.16 2.28 2.39 2.78 3.34 3.98 4.41 4.85 5.08 4.95 4.52 3.92 3.44 3.31 3.16 3.00 2.96 2.83 2.69 2.50 2.34 2.42 2.11 1.93 1.89 1.85 1.75 1.67 1.85 2.00 1.93 1.93
0.03 0.05 0.12 0.22 0.15 0.14 0.26 0.47 0.68 0.76 0.91 1.09 1.14 1.12 1.25 1.51 1.71 2.00 2.27 2.63 2.95 3.40 4.05 4.67 5.23 5.41 5.09 4.41 3.88 3.70 3.52 3.18 2.90 2.61 2.35 2.15 2.08 1.96 2.02 1.82 1.71 1.78 1.78 1.64 1.70 1.85 1.91 1.69 1.75
0.03 0.05 0.14 0.22 0.14 0.16 0.29 0.46 0.68 0.84 0.98 1.04 1.22 1.20 1.35 1.57 1.73 2.08 2.41 2.81 3.19 3.61 4.22 4.77 5.15 5.07 4.79 4.33 3.86 3.51 3.01 2.66 2.36 2.03 1.74 1.57 1.49 1.46 1.62 1.46 1.53 1.57 1.52 1.42 1.40 1.47 1.49 1.30 1.55
0.05 0.08 0.17 0.21 0.14 0.15 0.30 0.50 0.77 0.85 0.84 0.85 1.06 1.17 1.20 1.34 1.62 1.89 2.37 2.71 3.05 3.47 3.90 4.23 4.15 3.72 3.47 3.29 3.02 2.67 2.53 2.35 2.23 2.09 1.83 1.49 1.41 1.35 1.24 1.27 1.23 1.27 1.31 1.19 1.13 1.25 1.23 1.04 1.29
0.06 0.08 0.14 0.19 0.22 0.23 0.33 0.65 0.88 0.90 0.82 0.76 0.79 0.89 0.95 1.06 1.25 1.55 2.06 2.36 2.51 2.82 3.08 3.12 2.89 2.54 2.40 2.33 2.14 2.13 2.25 2.29 2.20 2.13 1.97 1.70 1.54 1.46 1.38 1.28 1.15 1.09 1.08 1.09 1.04 1.11 1.11 0.99 1.02
0.09 0.06 0.07 0.10 0.19 0.41 0.47 0.82 1.06 1.11 1.07 0.89 0.78 0.85 0.88 0.87 0.91 1.22 1.58 1.74 1.90 1.98 2.02 2.05 2.01 1.87 1.78 1.74 1.65 1.52 1.59 1.81 1.94 2.05 2.04 2.02 1.86 1.66 1.49 1.34 1.14 0.96 0.91 0.96 0.84 0.90 1.02 1.04 0.93
0.06 0.05 0.06 0.09 0.15 0.30 0.41 0.65 1.03 1.25 1.39 1.01 0.78 0.74 0.68 0.73 0.88 1.07 1.13 1.18 1.29 1.30 1.37 1.39 1.49 1.57 1.55 1.51 1.63 1.53 1.32 1.27 1.23 1.27 1.39 1.48 1.54 1.47 1.25 1.12 1.02 0.88 0.80 0.78 0.80 0.90 0.96 0.99 0.92
0.06 0.10 0.16 0.24 0.37 0.60 0.57 0.61 0.92 1.06 1.12 0.81 0.67 0.71 0.58 0.55 0.67 0.80 0.88 0.89 0.93 0.94 1.00 1.14 1.28 1.47 1.51 1.48 1.43 1.44 1.35 1.27 1.18 1.10 1.08 1.04 1.08 1.08 1.00 0.91 0.87 0.82 0.79 0.77 0.74 0.79 0.87 0.95 1.00
0.08 0.15 0.47 0.81 1.13 1.16 0.67 0.66 0.83 0.76 0.74 0.76 0.64 0.60 0.57 0.47 0.45 0.43 0.47 0.50 0.53 0.54 0.61 0.83 0.97 1.12 1.18 1.19 1.18 1.14 1.24 1.24 1.15 1.00 0.89 0.80 0.74 0.75 0.77 0.78 0.80 0.76 0.79 0.82 0.87 0.86 0.86 0.92 1.03
0.08 0.12 0.34 0.57 0.74 0.86 0.70 0.99 1.03 0.77 0.67 0.56 0.46 0.41 0.40 0.31 0.27 0.23 0.23 0.25 0.31 0.35 0.39 0.49 0.69 0.83 0.97 1.00 1.04 1.13 1.28 1.29 1.18 1.15 0.97 0.85 0.75 0.71 0.70 0.78 0.82 0.78 0.76 0.75 0.85 0.88 0.93 1.00 1.03
0.09 0.08 0.12 0.19 0.31 0.56 0.81 0.99 0.90 0.72 0.67 0.49 0.34 0.27 0.25 0.20 0.17 0.15 0.15 0.17 0.19 0.22 0.28 0.31 0.43 0.61 0.77 0.87 0.95 0.94 0.92 0.95 0.94 0.94 0.90 0.82 0.82 0.73 0.78 0.83 0.88 0.87 0.86 0.87 0.91 0.90 0.98 1.16 1.23
0.10 0.09 0.10 0.14 0.27 0.43 0.70 1.02 1.03 0.86 0.72 0.54 0.40 0.25 0.18 0.18 0.15 0.15 0.13 0.14 0.14 0.17 0.26 0.34 0.37 0.50 0.76 0.94 0.97 0.84 0.72 0.64 0.71 0.75 0.79 0.83 0.83 0.80 0.81 0.83 0.85 0.89 0.88 0.88 0.93 0.96 1.05 1.21 1.27
0.14 0.11 0.11 0.13 0.15 0.28 0.59 0.76 0.61 0.58 0.50 0.45 0.40 0.27 0.21 0.19 0.14 0.12 0.10 0.09 0.11 0.15 0.23 0.39 0.48 0.60 0.82 1.04 1.12 1.00 0.82 0.73 0.71 0.66 0.63 0.70 0.77 0.82 0.85 0.80 0.72 0.66 0.69 0.81 0.96 1.00 1.07 1.15 1.20
0.14 0.14 0.14 0.20 0.18 0.19 0.32 0.49 0.34 0.33 0.39 0.34 0.28 0.21 0.16 0.12 0.12 0.09 0.07 0.06 0.08 0.11 0.22 0.51 0.78 1.09 1.22 1.38 1.53 1.39 1.02 0.82 0.72 0.58 0.54 0.61 0.72 0.81 0.84 0.77 0.69 0.65 0.69 0.82 0.96 1.08 1.28 1.41 1.36

GEFSSGP_prec_meanprecacc_144.txt.gz
Total_Precipitation_Accumulation
0.01 0.04 0.19 0.41 0.80 1.22 1.13 0.58 0.40 0.27 0.28 0.39 0.39 0.29 0.30 0.38 0.46 0.72 0.36 0.27 0.13 0.04 0.03 0.06 0.08 0.07 0.08 0.09 0.10 0.12 0.11 0.10 0.10 0.08 0.07 0.06 0.06 0.06 0.06 0.07 0.09 0.10 0.11 0.11 0.13 0.11 0.09 0.08 0.08
0.02 0.08 0.25 0.54 1.05 1.50 0.98 0.43 0.30 0.24 0.33 0.41 0.33 0.26 0.29 0.27 0.24 0.18 0.17 0.29 0.13 0.05 0.02 0.03 0.07 0.07 0.07 0.08 0.09 0.11 0.12 0.13 0.13 0.10 0.08 0.08 0.08 0.09 0.10 0.09 0.09 0.10 0.12 0.12 0.11 0.09 0.07 0.07 0.08
0.03 0.10 0.31 0.53 0.84 1.03 0.52 0.24 0.20 0.22 0.37 0.40 0.32 0.28 0.30 0.34 0.31 0.21 0.15 0.17 0.12 0.05 0.03 0.04 0.05 0.06 0.06 0.07 0.09 0.11 0.12 0.13 0.14 0.12 0.09 0.10 0.11 0.12 0.12 0.12 0.11 0.11 0.12 0.11 0.10 0.09 0.09 0.09 0.09
0.05 0.16 0.32 0.44 0.58 0.54 0.29 0.18 0.17 0.22 0.35 0.32 0.28 0.37 0.40 0.45 0.28 0.21 0.18 0.13 0.10 0.07 0.05 0.06 0.07 0.06 0.07 0.08 0.09 0.10 0.12 0.14 0.14 0.11 0.12 0.12 0.13 0.13 0.13 0.13 0.12 0.11 0.10 0.11 0.10 0.10 0.11 0.11 0.12
0.07 0.21 0.37 0.44 0.41 0.30 0.22 0.18 0.19 0.20 0.20 0.29 0.34 0.51 0.50 0.46 0.30 0.36 0.37 0.23 0.10 0.09 0.10 0.10 0.10 0.09 0.09 0.09 0.09 0.11 0.12 0.13 0.13 0.12 0.14 0.13 0.14 0.13 0.13 0.13 0.12 0.12 0.10 0.11 0.12 0.12 0.11 0.12 0.13
0.06 0.18 0.26 0.25 0.18 0.15 0.20 0.18 0.16 0.18 0.22 0.33 0.44 0.46 0.52 0.46 0.41 0.59 0.53 0.38 0.21 0.15 0.17 0.18 0.17 0.16 0.13 0.12 0.11 0.13 0.14 0.14 0.15 0.16 0.16 0.15 0.16 0.16 0.15 0.15 0.14 0.14 0.13 0.13 0.14 0.15 0.15 0.14 0.15
0.03 0.08 0.10 0.09 0.09 0.13 0.15 0.14 0.14 0.16 0.29 0.40 0.47 0.56 0.69 0.73 0.59 0.59 0.65 0.62 0.39 0.37 0.47 0.38 0.25 0.21 0.21 0.20 0.18 0.17 0.18 0.20 0.20 0.19 0.18 0.17 0.18 0.18 0.19 0.20 0.20 0.20 0.20 0.21 0.18 0.15 0.18 0.19 0.19
0.01 0.02 0.04 0.04 0.03 0.07 0.08 0.10 0.13 0.17 0.26 0.42 0.54 0.68 0.96 0.90 0.75 0.73 0.79 0.90 0.64 0.54 0.56 0.50 0.34 0.29 0.23 0.20 0.21 0.23 0.23 0.24 0.24 0.22 0.21 0.20 0.20 0.22 0.25 0.27 0.33 0.33 0.36 0.39 0.34 0.25 0.24 0.28 0.28
0.00 0.02 0.03 0.02 0.02 0.03 0.04 0.06 0.10 0.16 0.25 0.33 0.55 0.75 0.78 0.71 0.88 0.93 1.07 1.24 1.17 0.93 0.81 0.69 0.45 0.35 0.32 0.27 0.25 0.31 0.31 0.31 0.30 0.32 0.30 0.32 0.37 0.48 0.62 0.57 0.67 0.64 0.66 0.65 0.64 0.56 0.54 0.57 0.47
0.00 0.01 0.01 0.01 0.01 0.02 0.02 0.04 0.10 0.24 0.40 0.62 0.92 0.92 0.72 0.73 1.04 1.22 1.39 1.60 1.56 1.38 1.21 0.97 0.69 0.55 0.49 0.40 0.41 0.44 0.45 0.55 0.55 0.69 0.72 0.82 0.98 0.97 0.81 0.95 1.17 1.22 1.22 1.15 1.15 1.24 1.12 0.94 0.77
0.00 0.00 0.01 0.01 0.01 0.01 0.01 0.03 0.07 0.18 0.59 1.02 1.29 1.28 1.10 0.99 1.24 1.59 1.89 2.15 1.89 1.57 1.40 1.26 1.03 0.83 0.66 0.65 0.65 0.71 0.82 1.07 0.95 0.91 1.02 1.31 1.24 1.04 0.95 1.07 1.36 1.63 1.65 1.54 1.70 1.83 1.46 1.52 1.62
0.00 0.00 0.00 0.01 0.01 0.01 0.01 0.03 0.12 0.22 0.60 0.83 1.05 1.21 1.27 1.29 1.37 1.58 1.89 2.12 2.28 2.11 1.87 1.64 1.50 1.29 1.18 1.07 0.98 0.90 0.95 1.06 1.04 1.16 1.09 1.40 1.49 1.37 1.31 1.41 1.52 1.72 1.93 2.23 2.20 2.33 2.22 2.16 2.02
0.00 0.00 0.00 0.01 0.01 0.01 0.01 0.06 0.16 0.27 0.53 0.56 0.66 0.84 1.14 1.38 1.70 1.97 2.12 2.44 2.54 2.60 2.36 2.17 2.01 1.93 1.86 1.64 1.43 1.16 1.20 1.17 1.19 1.38 1.39 1.52 1.76 1.82 1.88 1.84 1.75 1.68 2.03 2.43 2.59 2.39 2.65 2.70 2.32
0.00 0.00 0.00 0.01 0.01 0.02 0.03 0.08 0.18 0.32 0.47 0.53 0.60 0.81 1.10 1.43 1.70 2.12 2.41 2.79 2.77 2.77 2.85 2.91 2.74 2.59 2.53 2.32 2.11 1.85 1.67 1.72 1.68 1.74 1.87 2.01 2.14 2.30 2.35 2.21 2.06 1.87 1.92 2.19 2.40 2.43 2.65 2.55 2.43
0.00 0.01 0.04 0.04 0.04 0.05 0.11 0.19 0.36 0.49 0.54 0.70 0.80 1.04 1.22 1.53 1.85 1.97 2.16 2.40 2.69 2.92 3.32 3.56 3.57 3.43 3.34 3.18 2.87 2.49 2.29 2.32 2.45 2.49 2.54 2.49 2.54 2.76 2.64 2.37 2.07 1.97 2.03 2.13 2.12 2.16 2.28 2.14 2.07
0.01 0.03 0.10 0.11 0.07 0.08 0.14 0.39 0.53 0.58 0.70 0.87 0.93 1.17 1.47 1.55 1.86 2.01 2.05 2.23 2.77 3.22 3.74 4.01 4.12 4.26 4.14 4.04 3.66 3.16 2.86 2.77 2.76 2.82 2.81 2.74 2.75 2.64 2.55 2.22 1.88 1.93 2.02 2.02 1.99 1.89 1.97 1.95 2.00
0.02 0.06 0.12 0.19 0.11 0.12 0.19 0.48 0.60 0.62 0.83 0.96 1.14 1.16 1.34 1.56 1.97 2.23 2.33 2.45 2.87 3.50 4.17 4.55 4.97 5.18 5.03 4.62 4.03 3.53 3.40 3.23 3.05 3.01 2.88 2.75 2.56 2.39 2.46 2.14 1.95 1.90 1.87 1.77 1.68 1.87 2.01 1.95 1.96
0.03 0.05 0.12 0.22 0.15 0.14 0.26 0.47 0.68 0.77 0.92 1.09 1.15 1.13 1.27 1.55 1.76 2.07 2.33 2.71 3.06 3.59 4.34 4.93 5.42 5.56 5.23 4.59 4.07 3.89 3.70 3.33 3.02 2.69 2.41 2.21 2.14 2.01 2.09 1.88 1.75 1.82 1.82 1.68 1.71 1.85 1.92 1.72 1.79
0.03 0.05 0.14 0.22 0.14 0.16 0.29 0.46 0.68 0.84 0.98 1.04 1.23 1.21 1.37 1.61 1.79 2.14 2.47 2.90 3.31 3.82 4.51 5.04 5.38 5.28 5.01 4.60 4.16 3.81 3.30 2.93 2.60 2.25 1.95 1.72 1.60 1.55 1.72 1.52 1.57 1.60 1.55 1.45 1.43 1.49 1.51 1.33 1.58
0.05 0.08 0.17 0.21 0.14 0.15 0.30 0.50 0.77 0.85 0.84 0.85 1.07 1.18 1.23 1.40 1.69 1.96 2.46 2.79 3.13 3.59 4.05 4.40 4.32 3.97 3.78 3.67 3.46 3.08 2.95 2.79 2.57 2.35 2.06 1.69 1.55 1.45 1.34 1.35 1.28 1.31 1.34 1.22 1.16 1.27 1.26 1.08 1.31
0.06 0.08 0.14 0.19 0.22 0.23 0.33 0.65 0.88 0.90 0.82 0.77 0.80 0.91 0.99 1.10 1.30 1.60 2.12 2.43 2.60 2.97 3.25 3.28 3.11 2.84 2.76 2.71 2.55 2.48 2.57 2.63 2.53 2.35 2.11 1.82 1.64 1.54 1.45 1.34 1.20 1.14 1.12 1.11 1.06 1.13 1.14 1.02 1.04
0.09 0.06 0.07 0.10 0.19 0.41 0.47 0.82 1.06 1.11 1.08 0.90 0.79 0.87 0.90 0.90 0.94 1.26 1.63 1.81 2.01 2.17 2.31 2.33 2.29 2.16 2.08 2.02 1.86 1.68 1.71 1.91 2.07 2.19 2.17 2.14 1.97 1.74 1.56 1.41 1.20 1.02 0.95 0.99 0.87 0.92 1.04 1.06 0.94
0.06 0.05 0.06 0.09 0.15 0.30 0.41 0.65 1.03 1.25 1.40 1.02 0.80 0.76 0.70 0.75 0.90 1.10 1.20 1.31 1.43 1.44 1.58 1.62 1.76 1.93 1.91 1.80 1.83 1.67 1.39 1.32 1.30 1.39 1.52 1.60 1.63 1.54 1.33 1.19 1.08 0.93 0.83 0.81 0.82 0.91 0.98 1.00 0.93
0.06 0.10 0.16 0.24 0.37 0.60 0.57 0.61 0.92 1.06 1.12 0.81 0.68 0.72 0.59 0.56 0.68 0.84 0.95 1.01 1.05 1.05 1.18 1.36 1.56 1.82 1.88 1.75 1.62 1.57 1.44 1.35 1.25 1.17 1.16 1.12 1.15 1.15 1.07 0.96 0.91 0.86 0.82 0.80 0.76 0.80 0.89 0.97 1.00
0.08 0.15 0.47 0.81 1.13 1.16 0.67 0.66 0.83 0.76 0.74 0.77 0.65 0.61 0.58 0.49 0.47 0.47 0.53 0.58 0.64 0.68 0.76 1.00 1.16 1.30 1.40 1.41 1.35 1.27 1.34 1.34 1.23 1.06 0.95 0.85 0.79 0.80 0.85 0.85 0.85 0.81 0.84 0.86 0.90 0.89 0.87 0.94 1.04
0.08 0.12 0.34 0.57 0.74 0.86 0.70 0.99 1.03 0.77 0.67 0.56 0.46 0.41 0.42 0.33 0.30 0.27 0.31 0.37 0.42 0.45 0.50 0.61 0.83 0.94 1.08 1.12 1.17 1.25 1.37 1.39 1.27 1.24 1.05 0.91 0.79 0.74 0.76 0.87 0.90 0.84 0.81 0.79 0.88 0.91 0.95 1.01 1.04
0.09 0.08 0.12 0.19 0.31 0.56 0.81 0.99 0.90 0.72 0.68 0.49 0.35 0.28 0.26 0.22 0.19 0.20 0.23 0.27 0.29 0.31 0.36 0.39 0.51 0.68 0.86 0.98 1.08 1.08 1.02 1.03 1.02 1.02 0.98 0.89 0.89 0.79 0.84 0.90 0.95 0.93 0.91 0.90 0.93 0.92 1.00 1.17 1.23
0.10 0.09 0.10 0.14 0.27 0.43 0.70 1.02 1.03 0.86 0.72 0.54 0.40 0.26 0.19 0.19 0.18 0.19 0.18 0.20 0.19 0.22 0.30 0.38 0.42 0.55 0.84 1.05 1.10 0.96 0.82 0.73 0.79 0.81 0.84 0.88 0.89 0.85 0.87 0.89 0.90 0.94 0.93 0.91 0.96 0.99 1.07 1.22 1.29
0.14 0.11 0.11 0.13 0.15 0.28 0.59 0.76 0.62 0.58 0.50 0.46 0.40 0.28 0.22 0.19 0.16 0.14 0.13 0.12 0.16 0.19 0.26 0.42 0.50 0.63 0.86 1.10 1.24 1.15 0.95 0.85 0.81 0.74 0.70 0.75 0.81 0.86 0.89 0.84 0.77 0.72 0.74 0.86 1.00 1.04 1.11 1.18 1.22
0.14 0.14 0.14 0.20 0.18 0.19 0.32 0.49 0.34 0.33 0.39 0.35 0.28 0.22 0.17 0.13 0.13 0.11 0.08 0.09 0.12 0.14 0.24 0.53 0.80 1.11 1.25 1.42 1.61 1.52 1.15 0.94 0.84 0.68 0.61 0.67 0.77 0.86 0.88 0.82 0.74 0.70 0.76 0.89 1.01 1.13 1.33 1.46 1.40

GEFSSGP_prec_meanprecacc_150.txt.gz
Total_Precipitation_Accumulation
0.01 0.05 0.19 0.41 0.81 1.22 1.13 0.58 0.40 0.27 0.28 0.39 0.39 0.29 0.30 0.38 0.47 0.75 0.37 0.27 0.13 0.04 0.03 0.06 0.09 0.08 0.08 0.10 0.11 0.13 0.12 0.11 0.11 0.09 0.08 0.07 0.07 0.07 0.07 0.07 0.10 0.12 0.13 0.13 0.14 0.13 0.11 0.11 0.10
0.02 0.08 0.25 0.54 1.05 1.51 0.99 0.43 0.30 0.25 0.34 0.41 0.33 0.26 0.29 0.27 0.24 0.18 0.17 0.29 0.13 0.05 0.03 0.03 0.07 0.08 0.07 0.09 0.10 0.12 0.13 0.13 0.13 0.11 0.09 0.09 0.09 0.10 0.12 0.11 0.11 0.12 0.14 0.13 0.12 0.11 0.09 0.09 0.10
0.03 0.10 0.31 0.53 0.84 1.03 0.52 0.24 0.20 0.23 0.37 0.40 0.32 0.28 0.30 0.34 0.31 0.22 0.15 0.17 0.12 0.05 0.04 0.04 0.06 0.06 0.07 0.07 0.09 0.11 0.12 0.13 0.15 0.12 0.10 0.11 0.13 0.14 0.15 0.14 0.13 0.14 0.14 0.13 0.12 0.11 0.11 0.11 0.12
0.05 0.16 0.32 0.44 0.58 0.54 0.29 0.18 0.18 0.23 0.35 0.32 0.28 0.37 0.40 0.45 0.28 0.21 0.18 0.13 0.10 0.07 0.05 0.06 0.07 0.07 0.07 0.08 0.09 0.11 0.14 0.15 0.16 0.12 0.12 0.13 0.15 0.15 0.15 0.14 0.14 0.14 0.12 0.13 0.12 0.11 0.12 0.13 0.14
0.07 0.21 0.37 0.44 0.41 0.30 0.22 0.18 0.19 0.20 0.21 0.29 0.34 0.51 0.50 0.46 0.30 0.36 0.37 0.23 0.10 0.09 0.10 0.10 0.10 0.09 0.09 0.09 0.10 0.12 0.13 0.14 0.14 0.13 0.14 0.14 0.16 0.16 0.15 0.15 0.15 0.14 0.12 0.13 0.14 0.14 0.12 0.15 0.16
0.06 0.18 0.26 0.25 0.19 0.15 0.20 0.19 0.16 0.18 0.22 0.33 0.44 0.46 0.52 0.46 0.41 0.59 0.53 0.38 0.21 0.15 0.17 0.19 0.18 0.17 0.14 0.12 0.12 0.13 0.15 0.15 0.16 0.17 0.17 0.16 0.18 0.18 0.17 0.17 0.17 0.16 0.15 0.14 0.16 0.17 0.17 0.17 0.18
0.03 0.08 0.10 0.09 0.09 0.13 0.15 0.14 0.14 0.17 0.29 0.40 0.47 0.56 0.69 0.73 0.59 0.59 0.65 0.62 0.39 0.37 0.47 0.39 0.26 0.22 0.22 0.21 0.19 0.18 0.19 0.20 0.21 0.20 0.19 0.19 0.20 0.20 0.21 0.23 0.23 0.22 0.22 0.22 0.19 0.17 0.21 0.22 0.23
0.01 0.02 0.04 0.04 0.03 0.07 0.08 0.10 0.13 0.17 0.26 0.42 0.54 0.68 0.96 0.90 0.75 0.73 0.79 0.90 0.64 0.54 0.56 0.52 0.37 0.32 0.25 0.21 0.23 0.24 0.25 0.25 0.25 0.23 0.23 0.22 0.22 0.23 0.27 0.28 0.35 0.36 0.38 0.41 0.37 0.28 0.28 0.32 0.34
0.00 0.02 0.03 0.02 0.02 0.03 0.04 0.06 0.10 0.16 0.25 0.33 0.55 0.75 0.78 0.71 0.88 0.93 1.08 1.25 1.18 0.94 0.83 0.71 0.47 0.37 0.35 0.29 0.27 0.33 0.33 0.32 0.31 0.34 0.31 0.34 0.41 0.50 0.64 0.58 0.70 0.66 0.68 0.68 0.66 0.59 0.58 0.61 0.51
0.00 0.01 0.01 0.01 0.01 0.02 0.02 0.05 0.10 0.24 0.40 0.62 0.92 0.92 0.72 0.73 1.04 1.22 1.39 1.60 1.58 1.39 1.23 1.01 0.72 0.56 0.51 0.42 0.44 0.48 0.48 0.58 0.57 0.71 0.75 0.86 1.03 1.01 0.82 0.97 1.20 1.26 1.25 1.18 1.18 1.28 1.15 0.97 0.82
0.00 0.00 0.01 0.01 0.01 0.01 0.02 0.03 0.07 0.19 0.59 1.02 1.29 1.28 1.10 0.99 1.24 1.59 1.89 2.17 1.91 1.60 1.42 1.30 1.08 0.86 0.68 0.67 0.68 0.74 0.85 1.11 0.99 0.94 1.06 1.34 1.27 1.06 0.96 1.10 1.42 1.69 1.69 1.59 1.72 1.85 1.47 1.55 1.69
0.00 0.00 0.00 0.01 0.01 0.01 0.02 0.04 0.12 0.22 0.60 0.84 1.05 1.21 1.27 1.29 1.37 1.59 1.90 2.15 2.30 2.14 1.91 1.69 1.55 1.32 1.21 1.10 1.00 0.92 0.97 1.08 1.07 1.18 1.11 1.42 1.50 1.39 1.32 1.44 1.56 1.78 2.00 2.28 2.23 2.36 2.25 2.18 2.04
0.00 0.00 0.00 0.01 0.01 0.01 0.02 0.06 0.16 0.27 0.53 0.56 0.66 0.84 1.14 1.38 1.71 2.00 2.15 2.48 2.56 2.62 2.39 2.23 2.07 1.98 1.90 1.68 1.46 1.18 1.23 1.20 1.21 1.39 1.40 1.53 1.77 1.83 1.89 1.85 1.78 1.71 2.07 2.47 2.64 2.41 2.68 2.71 2.33
0.00 0.00 0.00 0.01 0.01 0.02 0.03 0.08 0.18 0.33 0.47 0.53 0.60 0.81 1.10 1.43 1.71 2.13 2.43 2.82 2.80 2.81 2.90 2.97 2.82 2.68 2.61 2.37 2.14 1.87 1.70 1.75 1.71 1.75 1.87 2.02 2.15 2.31 2.36 2.22 2.09 1.90 1.95 2.24 2.45 2.46 2.69 2.58 2.46
0.00 0.01 0.04 0.04 0.04 0.05 0.11 0.20 0.36 0.49 0.54 0.70 0.80 1.04 1.22 1.53 1.85 1.98 2.18 2.43 2.72 2.96 3.38 3.62 3.67 3.55 3.44 3.25 2.92 2.53 2.33 2.36 2.49 2.52 2.56 2.51 2.56 2.78 2.67 2.40 2.10 2.01 2.08 2.19 2.19 2.23 2.33 2.19 2.11
0.01 0.03 0.10 0.11 0.07 0.08 0.14 0.39 0.53 0.58 0.70 0.87 0.93 1.17 1.47 1.55 1.86 2.02 2.06 2.25 2.80 3.25 3.79 4.09 4.24 4.41 4.24 4.10 3.73 3.22 2.92 2.81 2.79 2.85 2.84 2.76 2.78 2.68 2.60 2.26 1.92 1.97 2.08 2.08 2.06 1.96 2.03 2.01 2.08
0.02 0.06 0.12 0.19 0.11 0.12 0.19 0.48 0.60 0.62 0.83 0.96 1.14 1.16 1.34 1.56 1.98 2.24 2.34 2.47 2.90 3.53 4.21 4.60 5.03 5.26 5.10 4.68 4.10 3.60 3.46 3.29 3.10 3.04 2.91 2.79 2.61 2.43 2.51 2.19 2.00 1.95 1.94 1.84 1.73 1.93 2.06 2.02 2.06
0.03 0.05 0.12 0.22 0.15 0.14 0.26 0.47 0.68 0.77 0.92 1.09 1.15 1.13 1.27 1.55 1.77 2.08 2.35 2.73 3.09 3.63 4.38 4.97 5.45 5.60 5.28 4.64 4.15 3.96 3.78 3.41 3.11 2.76 2.46 2.26 2.19 2.06 2.16 1.93 1.81 1.89 1.90 1.76 1.79 1.94 1.98 1.79 1.87
0.03 0.05 0.14 0.22 0.14 0.16 0.29 0.46 0.68 0.84 0.98 1.04 1.23 1.22 1.37 1.61 1.79 2.15 2.48 2.91 3.34 3.85 4.54 5.09 5.42 5.33 5.06 4.66 4.22 3.88 3.38 3.01 2.67 2.31 2.02 1.81 1.67 1.61 1.79 1.62 1.66 1.69 1.65 1.53 1.50 1.56 1.58 1.39 1.65
0.05 0.08 0.17 0.21 0.14 0.15 0.30 0.50 0.77 0.85 0.84 0.85 1.07 1.18 1.23 1.40 1.69 1.97 2.46 2.80 3.15 3.61 4.08 4.45 4.36 4.00 3.83 3.73 3.56 3.23 3.13 2.96 2.69 2.44 2.17 1.78 1.63 1.52 1.41 1.45 1.38 1.40 1.45 1.32 1.23 1.35 1.33 1.14 1.38
0.06 0.08 0.14 0.19 0.22 0.23 0.33 0.65 0.88 0.90 0.82 0.77 0.80 0.91 0.99 1.11 1.31 1.61 2.13 2.44 2.62 2.99 3.28 3.31 3.14 2.88 2.84 2.81 2.68 2.67 2.79 2.84 2.72 2.51 2.22 1.91 1.72 1.62 1.53 1.44 1.30 1.23 1.19 1.19 1.14 1.22 1.23 1.10 1.10
0.09 0.06 0.07 0.10 0.19 0.41 0.47 0.82 1.06 1.11 1.08 0.90 0.79 0.87 0.90 0.91 0.95 1.27 1.64 1.82 2.02 2.19 2.34 2.36 2.34 2.23 2.18 2.18 2.03 1.85 1.89 2.06 2.22 2.35 2.29 2.25 2.07 1.84 1.66 1.52 1.31 1.12 1.03 1.08 0.95 0.98 1.12 1.16 1.02
0.06 0.05 0.06 0.09 0.15 0.30 0.41 0.65 1.03 1.25 1.40 1.02 0.80 0.76 0.70 0.75 0.91 1.10 1.21 1.32 1.44 1.46 1.61 1.65 1.81 2.00 2.04 1.99 2.05 1.86 1.55 1.46 1.44 1.53 1.65 1.72 1.72 1.62 1.43 1.31 1.21 1.04 0.92 0.90 0.90 0.98 1.05 1.07 0.99
0.06 0.10 0.16 0.24 0.37 0.60 0.57 0.61 0.92 1.06 1.12 0.81 0.68 0.72 0.60 0.56 0.69 0.84 0.96 1.03 1.07 1.07 1.21 1.40 1.63 1.91 2.02 1.98 1.85 1.75 1.58 1.48 1.37 1.30 1.29 1.23 1.26 1.23 1.16 1.06 1.01 0.95 0.89 0.88 0.84 0.89 0.97 1.04 1.07
0.08 0.15 0.47 0.81 1.14 1.17 0.67 0.66 0.83 0.76 0.74 0.77 0.65 0.61 0.58 0.49 0.47 0.47 0.53 0.60 0.67 0.70 0.80 1.05 1.23 1.39 1.51 1.61 1.52 1.39 1.46 1.49 1.36 1.19 1.06 0.96 0.88 0.87 0.91 0.93 0.92 0.89 0.90 0.93 0.98 0.97 0.95 1.01 1.10
0.08 0.12 0.34 0.58 0.74 0.86 0.70 1.00 1.03 0.77 0.67 0.56 0.47 0.42 0.42 0.33 0.30 0.27 0.31 0.38 0.44 0.49 0.54 0.66 0.88 1.00 1.15 1.24 1.28 1.35 1.47 1.52 1.39 1.38 1.17 1.01 0.88 0.82 0.83 0.94 0.98 0.92 0.88 0.86 0.97 0.99 1.03 1.08 1.10
0.09 0.08 0.12 0.19 0.31 0.57 0.81 0.99 0.91 0.72 0.68 0.49 0.35 0.28 0.26 0.22 0.19 0.20 0.23 0.28 0.30 0.35 0.41 0.44 0.56 0.73 0.93 1.06 1.15 1.20 1.15 1.15 1.14 1.13 1.10 0.99 0.98 0.86 0.92 0.98 1.02 1.01 1.00 1.00 1.04 1.02 1.08 1.24 1.29
0.10 0.09 0.10 0.14 0.27 0.43 0.70 1.02 1.03 0.86 0.72 0.54 0.40 0.26 0.19 0.19 0.18 0.19 0.19 0.20 0.20 0.24 0.33 0.41 0.46 0.60 0.90 1.15 1.19 1.09 0.99 0.86 0.90 0.90 0.94 0.99 0.98 0.94 0.96 0.98 0.99 1.02 1.00 0.99 1.05 1.09 1.16 1.30 1.36
0.14 0.11 0.11 0.13 0.15 0.28 0.59 0.77 0.62 0.58 0.50 0.46 0.40 0.28 0.22 0.20 0.16 0.15 0.13 0.13 0.16 0.20 0.27 0.44 0.53 0.67 0.91 1.18 1.33 1.27 1.09 0.97 0.93 0.83 0.77 0.84 0.92 0.97 1.00 0.94 0.87 0.81 0.82 0.93 1.09 1.11 1.18 1.26 1.31
0.14 0.14 0.14 0.20 0.18 0.19 0.33 0.49 0.34 0.33 0.39 0.35 0.28 0.22 0.17 0.14 0.14 0.12 0.09 0.09 0.12 0.14 0.25 0.54 0.82 1.14 1.29 1.49 1.69 1.62 1.25 1.03 0.93 0.76 0.67 0.75 0.89 0.96 0.98 0.91 0.84 0.79 0.84 0.97 1.08 1.20 1.40 1.52 1.47

GEFSSGP_prec_meanprecacc_156.txt.gz
Total_Precipitation_Accumulation
0.01 0.05 0.19 0.42 0.89 1.32 1.16 0.58 0.40 0.27 0.28 0.39 0.39 0.29 0.31 0.40 0.53 0.83 0.38 0.27 0.13 0.04 0.03 0.06 0.09 0.08 0.09 0.11 0.13 0.15 0.14 0.13 0.12 0.11 0.09 0.08 0.08 0.08 0.08 0.09 0.12 0.13 0.15 0.16 0.17 0.16 0.15 0.13 0.12
0.02 0.08 0.26 0.57 1.15 1.57 1.00 0.43 0.30 0.25 0.34 0.41 0.33 0.26 0.29 0.27 0.25 0.18 0.17 0.29 0.13 0.05 0.03 0.03 0.08 0.08 0.08 0.10 0.11 0.14 0.14 0.15 0.15 0.13 0.11 0.10 0.11 0.12 0.14 0.14 0.13 0.15 0.16 0.15 0.14 0.13 0.11 0.11 0.11
0.03 0.10 0.33 0.59 0.90 1.07 0.54 0.24 0.20 0.23 0.37 0.40 0.32 0.28 0.30 0.34 0.31 0.22 0.15 0.17 0.12 0.05 0.04 0.04 0.06 0.07 0.07 0.08 0.11 0.12 0.14 0.15 0.17 0.15 0.12 0.13 0.15 0.17 0.19 0.18 0.16 0.17 0.16 0.15 0.15 0.13 0.13 0.12 0.13
0.05 0.17 0.35 0.47 0.60 0.55 0.29 0.18 0.18 0.23 0.35 0.32 0.28 0.37 0.41 0.45 0.28 0.21 0.18 0.13 0.10 0.07 0.05 0.06 0.07 0.07 0.07 0.08 0.10 0.12 0.15 0.16 0.17 0.14 0.14 0.14 0.17 0.18 0.19 0.18 0.18 0.18 0.15 0.14 0.14 0.13 0.13 0.14 0.15
0.08 0.23 0.42 0.48 0.42 0.30 0.22 0.18 0.19 0.20 0.21 0.29 0.34 0.52 0.53 0.46 0.30 0.36 0.37 0.23 0.10 0.09 0.10 0.10 0.11 0.09 0.10 0.10 0.11 0.13 0.14 0.15 0.16 0.14 0.15 0.16 0.18 0.19 0.18 0.17 0.18 0.17 0.15 0.15 0.16 0.16 0.14 0.16 0.18
0.09 0.21 0.30 0.33 0.22 0.16 0.20 0.19 0.17 0.18 0.22 0.33 0.44 0.47 0.55 0.46 0.41 0.59 0.53 0.38 0.21 0.15 0.17 0.19 0.18 0.17 0.15 0.13 0.13 0.14 0.16 0.16 0.17 0.18 0.18 0.18 0.20 0.20 0.19 0.19 0.19 0.19 0.16 0.16 0.18 0.19 0.18 0.18 0.19
0.08 0.12 0.16 0.15 0.12 0.14 0.15 0.14 0.14 0.17 0.30 0.40 0.47 0.57 0.71 0.74 0.59 0.59 0.65 0.62 0.39 0.37 0.47 0.39 0.26 0.22 0.23 0.22 0.21 0.20 0.21 0.23 0.22 0.22 0.20 0.21 0.21 0.22 0.23 0.24 0.25 0.25 0.23 0.23 0.21 0.18 0.22 0.23 0.24
0.02 0.05 0.07 0.06 0.06 0.09 0.08 0.10 0.13 0.17 0.26 0.42 0.54 0.70 0.98 0.90 0.75 0.73 0.79 0.90 0.64 0.54 0.57 0.52 0.38 0.33 0.26 0.22 0.24 0.26 0.27 0.28 0.26 0.24 0.24 0.24 0.23 0.25 0.29 0.30 0.37 0.38 0.39 0.42 0.38 0.30 0.29 0.34 0.35
0.01 0.05 0.05 0.03 0.03 0.04 0.04 0.06 0.10 0.16 0.25 0.33 0.55 0.75 0.78 0.71 0.88 0.93 1.08 1.25 1.18 0.96 0.84 0.73 0.48 0.38 0.35 0.30 0.28 0.34 0.35 0.34 0.33 0.35 0.33 0.38 0.48 0.54 0.68 0.62 0.71 0.68 0.70 0.69 0.67 0.60 0.59 0.62 0.51
0.01 0.03 0.03 0.02 0.01 0.02 0.02 0.05 0.10 0.25 0.42 0.65 0.93 0.92 0.72 0.73 1.04 1.22 1.39 1.62 1.63 1.46 1.28 1.04 0.74 0.59 0.52 0.43 0.45 0.50 0.51 0.60 0.61 0.75 0.80 0.97 1.16 1.13 0.89 1.00 1.22 1.27 1.26 1.19 1.19 1.29 1.16 1.00 0.85
0.00 0.01 0.01 0.02 0.02 0.02 0.02 0.03 0.07 0.19 0.62 1.10 1.33 1.30 1.11 0.99 1.24 1.59 1.90 2.19 1.95 1.67 1.50 1.37 1.13 0.91 0.72 0.71 0.70 0.76 0.89 1.17 1.06 1.01 1.14 1.45 1.35 1.12 1.00 1.15 1.44 1.71 1.72 1.64 1.74 1.87 1.52 1.58 1.75
0.00 0.00 0.01 0.01 0.01 0.01 0.02 0.04 0.12 0.22 0.63 0.89 1.11 1.24 1.28 1.29 1.37 1.59 1.90 2.17 2.36 2.24 1.99 1.77 1.61 1.37 1.27 1.15 1.03 0.95 1.00 1.14 1.13 1.25 1.18 1.49 1.57 1.45 1.40 1.53 1.63 1.85 2.08 2.38 2.30 2.42 2.30 2.22 2.08
0.00 0.00 0.00 0.01 0.01 0.01 0.02 0.06 0.16 0.27 0.54 0.59 0.68 0.84 1.14 1.38 1.71 2.00 2.15 2.49 2.59 2.66 2.44 2.28 2.13 2.03 1.96 1.75 1.51 1.22 1.28 1.25 1.26 1.46 1.46 1.58 1.82 1.88 1.97 1.94 1.85 1.77 2.13 2.54 2.73 2.46 2.74 2.76 2.36
0.00 0.00 0.00 0.01 0.01 0.02 0.03 0.08 0.18 0.33 0.47 0.54 0.60 0.81 1.10 1.43 1.71 2.13 2.43 2.82 2.81 2.82 2.92 2.99 2.86 2.74 2.69 2.44 2.20 1.94 1.76 1.81 1.77 1.79 1.91 2.05 2.21 2.37 2.42 2.27 2.15 1.96 2.00 2.30 2.51 2.51 2.73 2.62 2.48
0.00 0.01 0.04 0.04 0.04 0.05 0.11 0.20 0.36 0.49 0.54 0.70 0.80 1.04 1.22 1.53 1.85 1.98 2.18 2.43 2.73 2.98 3.40 3.65 3.69 3.59 3.51 3.32 2.98 2.59 2.38 2.40 2.53 2.57 2.61 2.54 2.60 2.84 2.72 2.45 2.15 2.05 2.12 2.24 2.24 2.27 2.36 2.23 2.14
0.01 0.03 0.10 0.11 0.07 0.08 0.14 0.40 0.54 0.58 0.70 0.87 0.93 1.17 1.47 1.56 1.87 2.02 2.06 2.25 2.80 3.26 3.81 4.11 4.26 4.43 4.28 4.15 3.78 3.28 2.98 2.88 2.85 2.89 2.87 2.80 2.82 2.71 2.65 2.31 1.97 2.02 2.12 2.13 2.11 2.00 2.07 2.07 2.13
0.02 0.06 0.12 0.19 0.11 0.12 0.19 0.48 0.60 0.62 0.83 0.96 1.14 1.16 1.34 1.56 1.98 2.24 2.34 2.48 2.91 3.54 4.22 4.61 5.05 5.29 5.13 4.73 4.17 3.67 3.54 3.39 3.18 3.10 2.97 2.84 2.63 2.46 2.54 2.24 2.07 2.00 1.99 1.89 1.78 1.98 2.10 2.10 2.13
0.03 0.05 0.12 0.22 0.15 0.14 0.26 0.47 0.68 0.77 0.92 1.09 1.15 1.13 1.27 1.55 1.77 2.08 2.35 2.74 3.09 3.63 4.39 4.98 5.47 5.63 5.32 4.70 4.22 4.04 3.88 3.51 3.20 2.84 2.53 2.32 2.22 2.08 2.18 1.97 1.87 1.95 1.97 1.82 1.85 2.01 2.04 1.86 1.92
0.03 0.05 0.14 0.22 0.14 0.16 0.29 0.46 0.68 0.84 0.98 1.04 1.23 1.22 1.38 1.61 1.79 2.15 2.48 2.91 3.34 3.86 4.55 5.10 5.44 5.38 5.11 4.71 4.27 3.94 3.47 3.12 2.77 2.39 2.08 1.88 1.72 1.65 1.83 1.67 1.75 1.76 1.72 1.60 1.56 1.64 1.65 1.45 1.69
0.05 0.08 0.17 0.21 0.14 0.15 0.30 0.50 0.77 0.86 0.84 0.85 1.07 1.19 1.24 1.40 1.69 1.97 2.46 2.80 3.15 3.62 4.10 4.47 4.39 4.05 3.89 3.80 3.62 3.31 3.26 3.09 2.82 2.56 2.30 1.88 1.70 1.58 1.46 1.53 1.47 1.48 1.55 1.41 1.32 1.46 1.45 1.24 1.45
0.06 0.08 0.14 0.19 0.22 0.23 0.33 0.66 0.90 0.92 0.83 0.77 0.80 0.91 0.99 1.11 1.31 1.61 2.13 2.45 2.62 3.00 3.29 3.32 3.17 2.93 2.91 2.92 2.79 2.79 2.95 2.99 2.86 2.65 2.37 2.03 1.82 1.70 1.60 1.51 1.36 1.32 1.28 1.27 1.24 1.31 1.33 1.22 1.19
0.09 0.06 0.07 0.10 0.19 0.41 0.47 0.83 1.09 1.20 1.13 0.91 0.80 0.87 0.90 0.92 0.96 1.27 1.64 1.82 2.03 2.21 2.35 2.37 2.37 2.27 2.24 2.28 2.15 1.97 2.01 2.16 2.31 2.46 2.41 2.38 2.18 1.93 1.73 1.58 1.38 1.19 1.10 1.20 1.02 1.06 1.23 1.28 1.10
0.06 0.05 0.06 0.09 0.15 0.30 0.42 0.65 1.05 1.31 1.43 1.04 0.81 0.76 0.71 0.76 0.91 1.11 1.21 1.33 1.46 1.49 1.63 1.67 1.86 2.07 2.13 2.10 2.16 1.97 1.67 1.58 1.56 1.67 1.80 1.84 1.84 1.72 1.49 1.38 1.30 1.11 0.99 1.00 0.99 1.11 1.14 1.14 1.04
0.06 0.10 0.16 0.24 0.37 0.60 0.57 0.61 0.95 1.10 1.18 0.86 0.71 0.72 0.60 0.57 0.69 0.85 0.97 1.04 1.08 1.11 1.25 1.43 1.68 1.99 2.11 2.08 1.97 1.87 1.72 1.65 1.55 1.46 1.42 1.36 1.39 1.35 1.26 1.17 1.13 1.02 0.97 0.99 0.94 0.99 1.07 1.14 1.16
0.08 0.15 0.48 0.82 1.15 1.18 0.68 0.66 0.86 0.79 0.75 0.78 0.66 0.61 0.58 0.49 0.47 0.47 0.54 0.61 0.68 0.72 0.83 1.09 1.28 1.46 1.61 1.70 1.64 1.51 1.59 1.66 1.53 1.34 1.20 1.09 1.02 0.99 1.03 1.05 1.04 0.99 1.00 1.05 1.10 1.09 1.06 1.11 1.19
0.08 0.12 0.36 0.60 0.76 0.88 0.71 1.02 1.08 0.78 0.67 0.57 0.47 0.42 0.42 0.33 0.30 0.27 0.32 0.39 0.45 0.50 0.57 0.69 0.93 1.07 1.23 1.33 1.41 1.46 1.59 1.66 1.58 1.60 1.36 1.18 1.03 0.94 0.96 1.07 1.09 1.03 0.98 0.95 1.11 1.11 1.14 1.18 1.19
0.09 0.08 0.13 0.20 0.33 0.58 0.83 1.02 0.94 0.73 0.68 0.49 0.35 0.28 0.27 0.22 0.19 0.20 0.23 0.28 0.31 0.36 0.43 0.47 0.61 0.80 1.01 1.15 1.28 1.32 1.27 1.27 1.30 1.34 1.32 1.18 1.15 1.00 1.05 1.10 1.14 1.13 1.13 1.13 1.20 1.14 1.22 1.38 1.40
0.10 0.09 0.10 0.15 0.28 0.44 0.72 1.06 1.09 0.90 0.72 0.54 0.40 0.26 0.19 0.19 0.18 0.19 0.19 0.21 0.22 0.26 0.36 0.45 0.50 0.66 0.98 1.26 1.30 1.18 1.12 1.00 1.06 1.08 1.13 1.18 1.16 1.12 1.13 1.13 1.13 1.14 1.12 1.13 1.21 1.22 1.30 1.45 1.51
0.14 0.11 0.11 0.13 0.16 0.30 0.62 0.80 0.65 0.61 0.52 0.46 0.40 0.28 0.22 0.20 0.17 0.16 0.15 0.15 0.20 0.22 0.30 0.47 0.58 0.72 0.99 1.29 1.44 1.37 1.20 1.11 1.09 0.98 0.93 1.02 1.09 1.13 1.15 1.09 1.02 0.95 0.94 1.07 1.23 1.24 1.31 1.39 1.45
0.14 0.14 0.14 0.20 0.18 0.21 0.34 0.53 0.38 0.39 0.41 0.35 0.28 0.22 0.18 0.14 0.15 0.14 0.10 0.10 0.14 0.17 0.28 0.58 0.87 1.20 1.37 1.60 1.81 1.74 1.38 1.16 1.06 0.89 0.81 0.90 1.04 1.11 1.10 1.04 0.98 0.92 0.97 1.12 1.23 1.34 1.54 1.65 1.60